Location: Chuathbaluk
(61.5726°N, 159.2454°W)
Time: 16:15:53
(UTC+00:00)

ITAMSAT 1 - Pass Details

Date: 24 January 2021
Orbit: 784 x 796 km, 98.9° (Epoch: 05 March)

Event Time Altitude Azimuth Distance (km) Brightness Sun altitude
Rises 16:40:00 0° 20° (NNE) 3,291 11.0 -17.7°
Reaches altitude 10° 16:42:33 10° 30° (NNE) 2,359 10.4 -17.4°
Maximum altitude 16:47:15 33° 95° (E) 1,299 9.5 -16.9°
Drops below altitude 10° 16:51:55 10° 159° (SSE) 2,348 10.5 -16.3°
Sets 16:54:27 0° 169° (SSE) 3,274 11.2 -16.0°
